M2 PATHFINDER

导读

**M2 PATHFINDER卫星摘要** M2 PATHFINDER(又称RAAF M2 Pathfinder)是澳大利亚新南威尔士大学为澳大利亚皇家空军开发的航天任务卫星,于2020年6月13日成功发射。作为澳大利亚本土航天科研项目的探索成果,该卫星承担着技术验证与太空探索的"探路者"使命,推动了澳大利亚在小卫星技术领域的发展,也为澳大利亚后续航天任务奠定了技术基础。

基本信息
目录编号:
45727
目录名称:
M2 PATHFINDER
国际标识:
2020-037E
轨道中心:
EARTH
卫星名称:
M2 PATHFINDER
卫星全名:
--
卫星状态:
在轨 (已飞行2282 天)
发射日期:
2020-06-13 UTC
国别 :
澳大利亚 (AU)
星等 :
--
该卫星已列入 空间交会检测服务 Space Conjunction Data Service (SCDS) ,当前飞行风险评估等级: 无高风险
轨道信息
数据来源 国际轨道数据
星历时间: 2026-09-12T10:04:54+0800
15小时前
查看轨道信息
半长轴: 6929.628km
偏心率: 0.0010653
轨道倾角: 97.813°
近地点辐角 214.500°
升交点赤经 87.320°
平近点角 145.554°
近地点: 544.108km
远地点: 558.874km
周期: 95.681分钟
每日圈数: 15.050051
详细信息
使用方式:
暂无
2D轨道图
3D轨道图
轨道高度分析图
轨道倾角分析图
轨道综合分析图
查看轨道综合分析图
交会数据列表
事件ID 空间交会对象 最接近时刻(TCA) 交会距离 交会风险概率(CRP) 交会风险指数(CRI) 操作
CDM_260911-081104-572706-507322
2026-09-11T
08:11:11+0000
2.677 km
极远距离
1.454739E-6 低风险 0.38
与全量物体交会距离演化趋势
与全量物体交会风险概率演化趋势